Torna al catalogo

THOR ABLESTAR DEB

AttivoLEO
NORAD 13364·DEBRIS·🇺🇸 United States

Lanciato Jun 29, 1961 da Cape Canaveral Space Force Station

Loading…

Prossimi Passaggi (prossime 24 ore)

TLE

AggiornatoSource: Space-Track

Epoca: Sep 14, 2026, 00:07 UTC

1 13364U 61015KS  26257.00490694  .00000464  00000-0  52710-3 0  9996
2 13364  66.2590 109.3218 0092858 125.7168  21.9492 13.77509699424411

Traccia THOR ABLESTAR DEB in tempo reale con AllMySat

Download on the App Store